[[{"header":{"parameterUnit":"m.s-1","parameterCategory":2,"la1":30.2992,"la2":30.254,"lo1":-89.0895,"lo2":-89.0443,"dy":0.0025,"dx":0.0025,"nx":19,"ny":19,"refTime":"2026-04-17T03:00:00:Z","depth":"0","parameterNumber":2,"parameterNumberName":"U-component_of_CURRENTS"},"data":[0,0,0,-0.2675,-0.2675,-0.2658,-0.2658,-0.2624,-0.2624,0,0,0,0,0,0,0,0,0,0,0,-0.2669,-0.2669,-0.2675,-0.2675,-0.2658,-0.2658,-0.2625,-0.2624,0,0,0,0,0,0,0,0,0,0,0,-0.2669,-0.2669,-0.2669,-0.2675,-0.2658,-0.2658,-0.2625,-0.2636,0,0,0,0,0,0,0,0,0,0,-0.2652,-0.2647,-0.2669,-0.2669,-0.2675,-0.2658,-0.2658,-0.2637,-0.2635,-0.2635,0,-0.2635,0,-0.2642,-0.2624,-0.2623,0,0,0,-0.2658,-0.2647,-0.2657,-0.2669,-0.2675,-0.2658,-0.2661,-0.2636,-0.2635,-0.2633,-0.2635,-0.2634,-0.2642,-0.2623,-0.2623,-0.2664,-0.2664,0,0,-0.2659,-0.2651,-0.2658,-0.2656,-0.2675,-0.2662,-0.2661,-0.2635,-0.2627,-0.2635,-0.2633,-0.2641,-0.2623,-0.2623,-0.2663,-0.2664,0,0,0,-0.2673,-0.2652,-0.2661,-0.2657,-0.2662,-0.2661,-0.266,-0.2627,-0.2635,-0.2633,-0.2641,-0.2623,-0.2623,-0.2662,-0.2663,-0.266,0,0,0,-0.2673,-0.2662,-0.2661,-0.2654,-0.2663,-0.2645,-0.2653,-0.2636,-0.2634,-0.2641,-0.2623,-0.2623,-0.2662,-0.2663,-0.2659,-0.266,0,0,0,-0.2669,-0.2661,-0.2664,-0.2655,-0.2658,-0.2646,-0.265,-0.2635,-0.2639,-0.2623,-0.2623,-0.2661,-0.2663,-0.2658,-0.2659,-0.2631,0,0,0,-0.2655,-0.2648,-0.2663,-0.2662,-0.2659,-0.267,-0.265,-0.2643,-0.2631,-0.2623,-0.2662,-0.2663,-0.2657,-0.2658,-0.263,-0.2582,-0.2579,0,0,-0.2639,-0.2645,-0.2649,-0.2663,-0.2674,-0.2671,-0.2678,-0.2651,-0.2653,-0.2665,-0.2666,-0.2659,-0.2659,-0.2631,-0.2656,-0.2651,0,0,0,-0.264,-0.2637,-0.2645,-0.2656,-0.2676,-0.2686,-0.2672,-0.2674,-0.2679,-0.2657,-0.2686,-0.2687,-0.2668,-0.264,-0.2637,-0.255,-0.2669,-0.2669,-0.2669,-0.2554,-0.2598,-0.2605,-0.2652,-0.2667,-0.2692,-0.27,-0.2707,-0.2697,-0.2711,-0.2704,-0.271,-0.2683,-0.2679,-0.2591,-0.2726,-0.2726,-0.2726,-0.2726,-0.2516,-0.252,-0.2583,-0.261,-0.2654,-0.2667,-0.2714,-0.2718,-0.2729,-0.2734,-0.2715,-0.2664,-0.2674,-0.2583,-0.2726,-0.2726,-0.2726,-0.2726,-0.2726,-0.2443,-0.2457,-0.2498,-0.2556,-0.2594,-0.2646,-0.2669,-0.2711,-0.2723,-0.2726,-0.2664,-0.2663,-0.2561,-0.2698,-0.2697,-0.2697,-0.2697,-0.2697,-0.2697,-0.2348,-0.2398,-0.2421,-0.2496,-0.2521,-0.2567,-0.2639,-0.2648,-0.2653,-0.2664,-0.2663,-0.256,-0.2701,-0.2678,-0.2696,-0.2696,-0.2696,-0.2696,-0.2696,-0.2266,-0.2296,-0.2324,-0.2355,-0.2423,-0.2427,-0.2529,-0.2541,-0.2557,-0.2535,-0.2485,-0.2624,-0.2613,-0.2616,-0.2591,-0.2585,-0.2585,-0.2585,-0.2585,-0.219,-0.2215,-0.2222,-0.2242,-0.2281,-0.2348,-0.2332,-0.2431,-0.2442,-0.2431,-0.2391,-0.2379,-0.2388,-0.2363,-0.2372,-0.2343,-0.2274,-0.2273,-0.2273,-0.2137,-0.2154,-0.2113,-0.2152,-0.2196,-0.2236,-0.2218,-0.229,-0.2319,-0.2253,-0.2278,-0.2291,-0.227,-0.229,-0.2251,-0.2269,-0.2222,0,0]},{"header":{"parameterUnit":"m.s-1","parameterCategory":2,"la1":30.2992,"la2":30.254,"lo1":-89.0895,"lo2":-89.0443,"dy":0.0025,"dx":0.0025,"nx":19,"ny":19,"refTime":"2026-04-17T03:00:00:Z","depth":"0","parameterNumber":3,"parameterNumberName":"V-component_of_CURRENTS"},"data":[0,0,0,-0.0862,-0.0862,-0.0856,-0.0856,-0.0741,-0.074,0,0,0,0,0,0,0,0,0,0,0,-0.0856,-0.0856,-0.0862,-0.0862,-0.0856,-0.0856,-0.0741,-0.074,0,0,0,0,0,0,0,0,0,0,0,-0.0856,-0.0856,-0.0857,-0.0862,-0.0856,-0.0856,-0.0742,-0.0768,0,0,0,0,0,0,0,0,0,0,-0.0785,-0.0787,-0.0856,-0.0857,-0.0863,-0.0856,-0.0856,-0.077,-0.0766,-0.072,0,-0.0732,0,-0.0743,-0.0732,-0.0732,0,0,0,-0.0841,-0.079,-0.081,-0.0857,-0.0863,-0.0856,-0.0853,-0.0768,-0.0764,-0.0715,-0.073,-0.0727,-0.0742,-0.0731,-0.0731,-0.069,-0.069,0,0,-0.0841,-0.0828,-0.0814,-0.0808,-0.0875,-0.0853,-0.0853,-0.0767,-0.0752,-0.073,-0.0725,-0.074,-0.073,-0.0729,-0.0689,-0.069,0,0,0,-0.0857,-0.0828,-0.0851,-0.0811,-0.0825,-0.0854,-0.0853,-0.0756,-0.077,-0.0724,-0.0738,-0.073,-0.0728,-0.0689,-0.0689,-0.0772,0,0,0,-0.0856,-0.0839,-0.0851,-0.0839,-0.0828,-0.0801,-0.0844,-0.0776,-0.0767,-0.0739,-0.073,-0.0727,-0.0688,-0.0689,-0.0769,-0.0808,0,0,0,-0.0854,-0.0838,-0.0847,-0.0839,-0.085,-0.0804,-0.0812,-0.0774,-0.0776,-0.0731,-0.0727,-0.0688,-0.0689,-0.0766,-0.0803,-0.0846,0,0,0,-0.0826,-0.0842,-0.0847,-0.0867,-0.085,-0.0878,-0.0813,-0.0802,-0.0771,-0.0729,-0.0688,-0.0689,-0.0765,-0.08,-0.0843,-0.101,-0.1039,0,0,-0.0835,-0.0842,-0.0859,-0.0865,-0.0911,-0.0876,-0.0898,-0.0825,-0.077,-0.0703,-0.0703,-0.077,-0.0803,-0.0846,-0.1073,-0.1101,0,0,0,-0.0856,-0.0876,-0.0888,-0.0916,-0.093,-0.0944,-0.0891,-0.0861,-0.0812,-0.0762,-0.0769,-0.0787,-0.0812,-0.0905,-0.0927,-0.0613,-0.0695,-0.0694,-0.0694,-0.0877,-0.0901,-0.0941,-0.0977,-0.0988,-0.0981,-0.0977,-0.0927,-0.086,-0.0857,-0.0854,-0.0943,-0.1044,-0.1062,-0.0736,-0.0851,-0.0851,-0.0851,-0.0851,-0.0935,-0.0981,-0.0997,-0.1043,-0.1063,-0.1077,-0.1049,-0.1013,-0.0993,-0.0927,-0.0947,-0.0987,-0.1091,-0.0735,-0.0857,-0.0856,-0.0855,-0.0855,-0.0854,-0.0981,-0.1008,-0.1025,-0.1092,-0.1138,-0.1144,-0.119,-0.1136,-0.1073,-0.1092,-0.1174,-0.1174,-0.086,-0.1097,-0.1097,-0.1098,-0.1098,-0.1098,-0.1099,-0.1029,-0.1047,-0.1094,-0.1149,-0.1205,-0.1262,-0.1269,-0.1287,-0.1309,-0.1284,-0.1285,-0.0865,-0.1017,-0.1007,-0.1105,-0.1103,-0.1103,-0.1102,-0.1102,-0.1118,-0.109,-0.1172,-0.1224,-0.1353,-0.1492,-0.1465,-0.1573,-0.1558,-0.161,-0.1131,-0.1385,-0.1373,-0.1356,-0.1354,-0.1535,-0.1535,-0.1535,-0.1536,-0.1166,-0.1161,-0.1265,-0.1366,-0.1501,-0.1607,-0.1833,-0.1893,-0.159,-0.1373,-0.1124,-0.1052,-0.1049,-0.1008,-0.0999,-0.0984,-0.1067,-0.1065,-0.1064,-0.123,-0.1244,-0.1344,-0.1425,-0.1587,-0.1774,-0.2052,-0.2036,-0.1445,-0.0998,-0.0642,-0.0663,-0.0501,-0.0521,-0.0413,-0.0426,-0.0387,0,0]}],[{"header":{"parameterUnit":"m.s-1","parameterCategory":2,"la1":30.2992,"la2":30.254,"lo1":-89.0895,"lo2":-89.0443,"dy":0.0025,"dx":0.0025,"nx":19,"ny":19,"refTime":"2026-04-17T03:00:00:Z","depth":"2","parameterNumber":2,"parameterNumberName":"U-component_of_CURRENTS"},"data":[0,0,0,-0.2094,-0.2097,-0.2227,-0.2227,-0.2351,-0.2352,0,0,0,0,0,0,0,0,0,0,0,-0.2035,-0.2036,-0.2094,-0.2097,-0.2227,-0.2227,-0.2351,-0.2352,0,0,0,0,0,0,0,0,0,0,0,-0.2035,-0.2036,-0.2036,-0.2097,-0.2226,-0.2227,-0.2351,-0.2265,0,0,0,0,0,0,0,0,0,0,-0.2145,-0.2097,-0.2035,-0.2036,-0.2098,-0.2226,-0.2227,-0.2261,-0.227,-0.2278,0,-0.2285,0,-0.2323,-0.2358,-0.2359,0,0,0,-0.2105,-0.209,-0.2122,-0.2036,-0.2099,-0.2226,-0.217,-0.2267,-0.2277,-0.2289,-0.2287,-0.2293,-0.2326,-0.2359,-0.2359,-0.2478,-0.2479,0,0,-0.2098,-0.2066,-0.2115,-0.2128,-0.2116,-0.2166,-0.2174,-0.2273,-0.2277,-0.2288,-0.2296,-0.2328,-0.236,-0.236,-0.2478,-0.2478,0,0,0,-0.2072,-0.2061,-0.2092,-0.2122,-0.215,-0.217,-0.2179,-0.2272,-0.2282,-0.2298,-0.2329,-0.236,-0.2361,-0.2477,-0.2478,-0.2463,0,0,0,-0.2068,-0.2046,-0.2088,-0.2072,-0.2148,-0.2221,-0.2175,-0.2274,-0.2288,-0.2328,-0.236,-0.2362,-0.2476,-0.2477,-0.2462,-0.244,0,0,0,-0.2032,-0.2043,-0.2051,-0.207,-0.2124,-0.222,-0.2236,-0.2279,-0.2306,-0.2359,-0.2363,-0.2476,-0.2477,-0.2461,-0.2439,-0.2432,0,0,0,-0.2005,-0.2022,-0.205,-0.2088,-0.2123,-0.2221,-0.2236,-0.2316,-0.2363,-0.2361,-0.2476,-0.2478,-0.2461,-0.2439,-0.2432,-0.24,-0.2397,0,0,-0.2014,-0.2022,-0.2049,-0.2078,-0.2157,-0.2205,-0.2288,-0.2351,-0.2384,-0.244,-0.2444,-0.2462,-0.2439,-0.2432,-0.2477,-0.2472,0,0,0,-0.2046,-0.2055,-0.2088,-0.2138,-0.2214,-0.2276,-0.235,-0.2376,-0.2441,-0.2418,-0.2494,-0.248,-0.2476,-0.2457,-0.2454,-0.2484,-0.2484,-0.2484,-0.2484,-0.2014,-0.2063,-0.2105,-0.2171,-0.2234,-0.2333,-0.2377,-0.2427,-0.2463,-0.2491,-0.2492,-0.2508,-0.2491,-0.2487,-0.2528,-0.2528,-0.2528,-0.2528,-0.2528,-0.2016,-0.2027,-0.2098,-0.2152,-0.2227,-0.2298,-0.2397,-0.243,-0.2483,-0.2507,-0.2504,-0.2473,-0.2483,-0.2528,-0.2528,-0.2528,-0.2528,-0.2528,-0.2528,-0.1976,-0.198,-0.2027,-0.2093,-0.2163,-0.2266,-0.2317,-0.2394,-0.246,-0.2473,-0.2464,-0.2464,-0.2469,-0.2482,-0.2481,-0.2481,-0.2481,-0.2481,-0.2481,-0.1895,-0.1942,-0.1963,-0.2033,-0.2072,-0.214,-0.2269,-0.2314,-0.2391,-0.2441,-0.2441,-0.2491,-0.2493,-0.2468,-0.2479,-0.248,-0.248,-0.248,-0.248,-0.1807,-0.1848,-0.1859,-0.1893,-0.1975,-0.2025,-0.2149,-0.2262,-0.2314,-0.2341,-0.2422,-0.2424,-0.242,-0.2423,-0.2398,-0.239,-0.239,-0.239,-0.239,-0.1735,-0.1762,-0.1754,-0.1784,-0.1837,-0.1962,-0.2058,-0.2138,-0.2234,-0.2189,-0.2197,-0.2193,-0.2202,-0.2186,-0.2194,-0.2163,-0.2095,-0.2094,-0.2093,-0.1665,-0.1676,-0.1628,-0.1687,-0.1766,-0.1897,-0.2008,-0.1902,-0.175,-0.2075,-0.2083,-0.2382,-0.2401,-0.2406,-0.2402,-0.2407,-0.2367,0,0]},{"header":{"parameterUnit":"m.s-1","parameterCategory":2,"la1":30.2992,"la2":30.254,"lo1":-89.0895,"lo2":-89.0443,"dy":0.0025,"dx":0.0025,"nx":19,"ny":19,"refTime":"2026-04-17T03:00:00:Z","depth":"2","parameterNumber":3,"parameterNumberName":"V-component_of_CURRENTS"},"data":[0,0,0,0.0217,0.0218,0.0301,0.0301,0.0441,0.0443,0,0,0,0,0,0,0,0,0,0,0,0.0175,0.0175,0.0217,0.0218,0.0301,0.0301,0.0441,0.0443,0,0,0,0,0,0,0,0,0,0,0,0.0175,0.0175,0.0175,0.0218,0.0301,0.0301,0.0441,0.0374,0,0,0,0,0,0,0,0,0,0,0.0292,0.0228,0.0175,0.0175,0.0219,0.03,0.0301,0.0371,0.0379,0.0408,0,0.0397,0,0.0422,0.0451,0.0451,0,0,0,0.0237,0.0221,0.0256,0.0175,0.0219,0.03,0.0269,0.0375,0.0384,0.0418,0.0399,0.0405,0.0424,0.0452,0.0452,0.049,0.049,0,0,0.0232,0.0188,0.0249,0.026,0.0211,0.0266,0.0271,0.038,0.037,0.04,0.0408,0.0426,0.0453,0.0454,0.0491,0.049,0,0,0,0.0206,0.0184,0.0216,0.0254,0.0266,0.0268,0.0274,0.0365,0.0378,0.041,0.0428,0.0453,0.0455,0.0492,0.0491,0.0359,0,0,0,0.0205,0.0168,0.0213,0.0187,0.0262,0.0308,0.0255,0.037,0.0383,0.0427,0.0453,0.0456,0.0492,0.0491,0.0364,0.0319,0,0,0,0.0177,0.0166,0.0169,0.0184,0.0215,0.0307,0.0327,0.0374,0.0394,0.0452,0.0456,0.0493,0.0491,0.0368,0.0327,0.0292,0,0,0,0.0141,0.0103,0.0166,0.0132,0.0214,0.0242,0.0326,0.0349,0.0385,0.0454,0.0492,0.0491,0.037,0.0331,0.0296,0.0301,0.0282,0,0,0.0074,0.0094,0.0076,0.0135,0.0123,0.0234,0.0231,0.0311,0.0381,0.0464,0.0465,0.0362,0.0327,0.0293,0.0228,0.0211,0,0,0,0.0044,0.0022,0.0032,0.0038,0.0094,0.0143,0.0229,0.0273,0.0324,0.0396,0.0374,0.0356,0.0339,0.0351,0.0337,0.0485,0.0485,0.0485,0.0485,-0.0073,-0.0046,-0.0087,-0.005,-0.0023,0.0075,0.0117,0.0197,0.026,0.0252,0.0256,0.0152,0.0162,0.0152,0.026,0.0259,0.0259,0.0259,0.0258,-0.0183,-0.0207,-0.0179,-0.0215,-0.014,-0.0123,0.0004,0.0054,0.0099,0.016,0.0148,0.022,0.013,0.0248,0.025,0.0251,0.0252,0.0253,0.0254,-0.0253,-0.0268,-0.0293,-0.0334,-0.0329,-0.0243,-0.0222,-0.0117,-0.0026,-0.0033,0.0009,0.0012,0.0084,-0.0052,-0.0053,-0.0053,-0.0053,-0.0054,-0.0054,-0.0311,-0.0338,-0.0417,-0.0448,-0.0475,-0.0461,-0.0356,-0.0307,-0.0204,-0.0119,-0.0118,0.0049,0.0059,0.0068,-0.006,-0.0059,-0.0058,-0.0057,-0.0057,-0.0388,-0.0408,-0.0525,-0.058,-0.0645,-0.0664,-0.0559,-0.0453,-0.0382,-0.0336,-0.0142,-0.0138,-0.0084,-0.0071,-0.0063,-0.0217,-0.0217,-0.0217,-0.0217,-0.0434,-0.0454,-0.062,-0.0721,-0.0786,-0.0757,-0.0701,-0.039,-0.0182,0.0058,0.0048,0.0129,0.0127,0.0201,0.0208,0.0226,0.0147,0.0148,0.0149,-0.0481,-0.0532,-0.0653,-0.0771,-0.0858,-0.0858,-0.0735,-0.0274,0.0236,0.0178,0.0258,-0.0221,-0.0131,-0.0123,-0.0026,-0.0008,0.0013,0,0]}],[{"header":{"parameterUnit":"m.s-1","parameterCategory":2,"la1":30.2992,"la2":30.254,"lo1":-89.0895,"lo2":-89.0443,"dy":0.0025,"dx":0.0025,"nx":19,"ny":19,"refTime":"2026-04-17T03:00:00:Z","depth":"4","parameterNumber":2,"parameterNumberName":"U-component_of_CURRENTS"},"data":[0,0,0,-0.0931,-0.0932,-0.1056,-0.1057,-0.1175,-0.1175,0,0,0,0,0,0,0,0,0,0,0,-0.0904,-0.0905,-0.093,-0.0933,-0.1056,-0.1057,-0.1175,-0.1175,0,0,0,0,0,0,0,0,0,0,0,-0.0904,-0.0905,-0.0905,-0.0933,-0.1056,-0.1057,-0.1175,-0.1097,0,0,0,0,0,0,0,0,0,0,-0.0985,-0.0953,-0.0904,-0.0905,-0.0933,-0.1056,-0.1057,-0.1094,-0.1102,-0.1099,0,-0.1118,0,-0.113,-0.118,-0.118,0,0,0,-0.0958,-0.0947,-0.0976,-0.0906,-0.0934,-0.1055,-0.1008,-0.1099,-0.1108,-0.1109,-0.1119,-0.1124,-0.1132,-0.1181,-0.1181,-0.1267,-0.1268,0,0,-0.0951,-0.0931,-0.097,-0.0981,-0.0964,-0.1003,-0.1011,-0.1105,-0.1114,-0.112,-0.1126,-0.1134,-0.1181,-0.1182,-0.1267,-0.1268,0,0,0,-0.0914,-0.0926,-0.0955,-0.0977,-0.0992,-0.1006,-0.1015,-0.1111,-0.1119,-0.1128,-0.1135,-0.1181,-0.1182,-0.1267,-0.1267,-0.1257,0,0,0,-0.0912,-0.0903,-0.0952,-0.0942,-0.099,-0.1055,-0.1018,-0.1114,-0.1124,-0.1135,-0.1181,-0.1183,-0.1266,-0.1267,-0.1256,-0.1243,0,0,0,-0.0899,-0.0901,-0.0914,-0.0941,-0.0981,-0.1054,-0.1071,-0.1117,-0.1127,-0.118,-0.1183,-0.1266,-0.1267,-0.1255,-0.1242,-0.1222,0,0,0,-0.0876,-0.0881,-0.0914,-0.0926,-0.0979,-0.1044,-0.1071,-0.1136,-0.1184,-0.1182,-0.1266,-0.1267,-0.1255,-0.1242,-0.1222,-0.1075,0,0,0,-0.0862,-0.0879,-0.0885,-0.0917,-0.0958,-0.1029,-0.1077,-0.1153,-0.1197,-0.1235,-0.1238,-0.1256,-0.1242,-0.1222,-0.1137,0,0,0,0,-0.0867,-0.0876,-0.0896,-0.093,-0.0987,-0.1052,-0.1125,-0.1163,-0.1242,-0.1224,-0.128,-0.1272,-0.1259,-0.1175,-0.1272,-0.1272,-0.1272,-0.1272,-0.1272,-0.0821,-0.0856,-0.0876,-0.0932,-0.0977,-0.1073,-0.1131,-0.12,-0.1236,-0.128,-0.1281,-0.1283,-0.1198,-0.1307,-0.1307,-0.1307,-0.1307,-0.1307,-0.1307,-0.0794,-0.0802,-0.0858,-0.0894,-0.0968,-0.1029,-0.1128,-0.1183,-0.1259,-0.1295,-0.1283,-0.1194,-0.1307,-0.1307,-0.1307,-0.1307,-0.1307,-0.1307,-0.1307,-0.0759,-0.0766,-0.08,-0.0845,-0.0919,-0.1007,-0.1071,-0.1169,-0.1236,-0.1262,-0.1166,-0.1272,-0.125,-0.1256,-0.1256,-0.1256,-0.1256,-0.1256,-0.1256,-0.07,-0.073,-0.0762,-0.0809,-0.0857,-0.0931,-0.1058,-0.1094,-0.1161,-0.1135,-0.1257,-0.1266,-0.1267,-0.1248,-0.1254,-0.1254,-0.1254,-0.1254,-0.1255,-0.0648,-0.0673,-0.07,-0.0742,-0.0835,-0.0875,-0.0974,-0.0981,-0.0997,-0.0967,-0.1061,-0.1071,-0.1055,-0.1061,-0.1033,-0.0976,-0.0974,-0.0972,0,-0.0608,-0.0624,-0.0676,-0.0733,-0.0777,-0.0856,-0.0827,-0.0856,-0.0904,-0.0892,-0.1024,-0.1134,-0.1139,-0.1126,-0.1129,-0.1099,0,0,0,-0.0572,-0.0598,-0.0629,-0.0707,-0.077,-0.078,-0.0822,-0.0802,-0.089,-0.0825,-0.0924,-0.0937,-0.111,-0.1248,-0.1246,-0.1248,-0.1216,0,0]},{"header":{"parameterUnit":"m.s-1","parameterCategory":2,"la1":30.2992,"la2":30.254,"lo1":-89.0895,"lo2":-89.0443,"dy":0.0025,"dx":0.0025,"nx":19,"ny":19,"refTime":"2026-04-17T03:00:00:Z","depth":"4","parameterNumber":3,"parameterNumberName":"V-component_of_CURRENTS"},"data":[0,0,0,-0.0199,-0.0199,-0.0223,-0.0223,-0.0215,-0.0215,0,0,0,0,0,0,0,0,0,0,0,-0.019,-0.019,-0.0198,-0.0199,-0.0223,-0.0223,-0.0215,-0.0215,0,0,0,0,0,0,0,0,0,0,0,-0.019,-0.019,-0.019,-0.0199,-0.0223,-0.0223,-0.0215,-0.0207,0,0,0,0,0,0,0,0,0,0,-0.0188,-0.0185,-0.019,-0.019,-0.0199,-0.0223,-0.0223,-0.0207,-0.0207,-0.0193,0,-0.0197,0,-0.0205,-0.0213,-0.0213,0,0,0,-0.02,-0.0185,-0.0192,-0.019,-0.0199,-0.0223,-0.0212,-0.0207,-0.0208,-0.0193,-0.0197,-0.0197,-0.0205,-0.0213,-0.0213,-0.022,-0.022,0,0,-0.0198,-0.0193,-0.0191,-0.0192,-0.0206,-0.0212,-0.0213,-0.0208,-0.0207,-0.0197,-0.0197,-0.0204,-0.0213,-0.0213,-0.022,-0.022,0,0,0,-0.0194,-0.0192,-0.02,-0.0192,-0.0199,-0.0212,-0.0214,-0.0207,-0.021,-0.0197,-0.0204,-0.0213,-0.0213,-0.022,-0.022,-0.0264,0,0,0,-0.0193,-0.0189,-0.0199,-0.0196,-0.0199,-0.0209,-0.0213,-0.0211,-0.0211,-0.0204,-0.0213,-0.0212,-0.0219,-0.022,-0.0262,-0.0263,0,0,0,-0.0189,-0.0189,-0.0192,-0.0195,-0.0206,-0.0209,-0.0212,-0.0211,-0.0214,-0.0213,-0.0212,-0.0219,-0.022,-0.026,-0.0261,-0.018,0,0,0,-0.0181,-0.0213,-0.0192,-0.0235,-0.0205,-0.0259,-0.0212,-0.0245,-0.0252,-0.0213,-0.0219,-0.022,-0.026,-0.026,-0.018,-0.0098,0,0,0,-0.0224,-0.0217,-0.0248,-0.0231,-0.0292,-0.0256,-0.0304,-0.0286,-0.0249,-0.0217,-0.0218,-0.0262,-0.0261,-0.018,-0.0134,0,0,0,0,-0.0265,-0.0282,-0.0301,-0.0326,-0.0348,-0.0348,-0.0335,-0.0311,-0.0279,-0.0254,-0.0262,-0.0259,-0.0206,-0.016,-0.0223,-0.0223,-0.0223,-0.0223,-0.0223,-0.031,-0.0328,-0.0376,-0.0395,-0.0417,-0.0415,-0.04,-0.0354,-0.033,-0.0314,-0.0296,-0.0266,-0.0224,-0.0305,-0.0305,-0.0305,-0.0305,-0.0306,-0.0306,-0.0372,-0.0394,-0.0411,-0.0462,-0.046,-0.0483,-0.044,-0.0409,-0.0324,-0.0329,-0.0275,-0.0214,-0.031,-0.0309,-0.0309,-0.0308,-0.0308,-0.0307,-0.0307,-0.0387,-0.0397,-0.0429,-0.0477,-0.0499,-0.0502,-0.0442,-0.0414,-0.0344,-0.0309,-0.0182,-0.0256,-0.0245,-0.0259,-0.0259,-0.0259,-0.0258,-0.0258,-0.0258,-0.0378,-0.0409,-0.0442,-0.0487,-0.0501,-0.049,-0.0429,-0.0342,-0.0285,-0.0197,-0.0291,-0.0248,-0.0249,-0.024,-0.0253,-0.0254,-0.0255,-0.0255,-0.0255,-0.0381,-0.0394,-0.044,-0.0462,-0.0483,-0.0455,-0.0404,-0.0212,-0.0101,0.0001,-0.0106,-0.0115,-0.0066,-0.0071,-0.0054,-0.0012,-0.0011,-0.0009,0,-0.0369,-0.0384,-0.0432,-0.0455,-0.0444,-0.0432,-0.0251,-0.0142,-0.0051,-0.0068,-0.0126,-0.026,-0.0262,-0.0222,-0.0223,-0.0211,0,0,0,-0.036,-0.0381,-0.0404,-0.0445,-0.0432,-0.0287,-0.0203,-0.0121,-0.0092,0.0086,0.0018,0.0011,-0.0143,-0.0238,-0.0181,-0.0183,-0.0164,0,0]}]]